| time (UTC) | temp C | wind direction | speed KPH | gust KPH | rain 1hr cm | rain 24hr cm | rain mn cm | humidity % | barometer mb |
| 20260505073211 | 18 | 120 | 11.3 | 24.1 | 0.00 | 0.00 | 0.00 | 48 | 1008.4 |
| 20260505073010 | 18 | 121 | 11.3 | 24.1 | 0.00 | 0.00 | 0.00 | 48 | 1008.4 |
| 20260505072811 | 18 | 123 | 11.3 | 24.1 | 0.00 | 0.00 | 0.00 | 48 | 1008.5 |
| 20260505072411 | 18 | 120 | 12.9 | 29.0 | 0.00 | 0.00 | 0.00 | 48 | 1008.4 |
| 20260505072011 | 18 | 115 | 12.9 | 29.0 | 0.00 | 0.00 | 0.00 | 49 | 1008.3 |
| 20260505071811 | 17 | 114 | 12.9 | 29.0 | 0.00 | 0.00 | 0.00 | 49 | 1008.3 |
| 20260505071611 | 17 | 111 | 12.9 | 29.0 | 0.00 | 0.00 | 0.00 | 49 | 1008.3 |
| 20260505071411 | 17 | 111 | 14.5 | 29.0 | 0.00 | 0.00 | 0.00 | 49 | 1008.3 |
| 20260505071210 | 17 | 113 | 14.5 | 29.0 | 0.00 | 0.00 | 0.00 | 49 | 1008.3 |
| 20260505071011 | 17 | 115 | 16.1 | 27.4 | 0.00 | 0.00 | 0.00 | 49 | 1008.3 |
| 20260505070811 | 17 | 117 | 16.1 | 27.4 | 0.00 | 0.00 | 0.00 | 49 | 1008.3 |
| 20260505070611 | 17 | 119 | 16.1 | 27.4 | 0.00 | 0.00 | 0.00 | 49 | 1008.3 |
| 20260505070011 | 17 | 120 | 17.7 | 30.6 | 0.00 | 0.00 | 0.00 | 49 | 1008.2 |
| 20260505065811 | 17 | 119 | 17.7 | 32.2 | 0.00 | 0.00 | 0.00 | 49 | 1008.2 |
| 20260505065611 | 17 | 119 | 17.7 | 33.8 | 0.00 | 0.00 | 0.00 | 49 | 1008.3 |
| 20260505065212 | 17 | 119 | 19.3 | 35.4 | 0.00 | 0.00 | 0.00 | 49 | 1008.2 |
| 20260505064811 | 17 | 119 | 19.3 | 37.0 | 0.00 | 0.00 | 0.00 | 49 | 1008.2 |
| 20260505064610 | 17 | 118 | 20.9 | 37.0 | 0.00 | 0.00 | 0.00 | 48 | 1008.2 |
| 20260505064211 | 17 | 119 | 22.5 | 37.0 | 0.00 | 0.00 | 0.00 | 48 | 1008.1 |
| 20260505064011 | 17 | 120 | 22.5 | 37.0 | 0.00 | 0.00 | 0.00 | 49 | 1008.2 |
| 20260505063811 | 17 | 120 | 22.5 | 37.0 | 0.00 | 0.00 | 0.00 | 48 | 1008.2 |
| 20260505063611 | 17 | 120 | 22.5 | 37.0 | 0.00 | 0.00 | 0.00 | 49 | 1008.2 |
| 20260505063415 | 17 | 118 | 22.5 | 37.0 | 0.00 | 0.00 | 0.00 | 48 | 1008.1 |
| 20260505063211 | 17 | 117 | 22.5 | 37.0 | 0.00 | 0.00 | 0.00 | 48 | 1008.0 |
| 20260505062811 | 17 | 117 | 22.5 | 38.6 | 0.00 | 0.00 | 0.00 | 48 | 1008.1 |
| 20260505062611 | 17 | 117 | 22.5 | 38.6 | 0.00 | 0.00 | 0.00 | 49 | 1008.0 |
| 20260505062410 | 17 | 117 | 20.9 | 38.6 | 0.00 | 0.00 | 0.00 | 49 | 1008.0 |
| 20260505062211 | 17 | 117 | 20.9 | 38.6 | 0.00 | 0.00 | 0.00 | 48 | 1008.1 |
| 20260505062011 | 17 | 116 | 20.9 | 38.6 | 0.00 | 0.00 | 0.00 | 48 | 1008.0 |
| 20260505061611 | 17 | 117 | 22.5 | 37.0 | 0.00 | 0.00 | 0.00 | 49 | 1008.0 |
| 20260505061211 | 17 | 118 | 22.5 | 37.0 | 0.00 | 0.00 | 0.00 | 49 | 1008.1 |
| 20260505061011 | 17 | 116 | 22.5 | 43.5 | 0.00 | 0.00 | 0.00 | 49 | 1008.2 |
| 20260505060811 | 17 | 116 | 22.5 | 43.5 | 0.00 | 0.00 | 0.00 | 49 | 1008.0 |
| 20260505060411 | 17 | 119 | 24.1 | 46.7 | 0.00 | 0.00 | 0.00 | 49 | 1008.0 |
| 20260505060211 | 17 | 119 | 24.1 | 46.7 | 0.00 | 0.00 | 0.00 | 49 | 1008.2 |
| 20260505060011 | 17 | 120 | 24.1 | 46.7 | 0.00 | 0.00 | 0.00 | 50 | 1007.9 |
| 20260505055811 | 17 | 118 | 24.1 | 46.7 | 0.00 | 0.00 | 0.00 | 49 | 1008.0 |
| 20260505055611 | 17 | 116 | 24.1 | 46.7 | 0.00 | 0.00 | 0.00 | 49 | 1008.1 |
| 20260505055411 | 17 | 119 | 22.5 | 46.7 | 0.00 | 0.00 | 0.00 | 49 | 1008.0 |
| 20260505055211 | 17 | 119 | 22.5 | 46.7 | 0.00 | 0.00 | 0.00 | 50 | 1008.0 |
| 20260505055010 | 17 | 118 | 22.5 | 46.7 | 0.00 | 0.00 | 0.00 | 49 | 1008.0 |
| 20260505054811 | 17 | 118 | 22.5 | 46.7 | 0.00 | 0.00 | 0.00 | 50 | 1007.9 |
| 20260505054612 | 17 | 120 | 22.5 | 38.6 | 0.00 | 0.00 | 0.00 | 49 | 1008.1 |
| 20260505054214 | 17 | 119 | 22.5 | 48.3 | 0.00 | 0.00 | 0.00 | 50 | 1008.0 |
| 20260505054011 | 17 | 120 | 22.5 | 48.3 | 0.00 | 0.00 | 0.00 | 50 | 1008.0 |
| 20260505053811 | 17 | 120 | 22.5 | 48.3 | 0.00 | 0.00 | 0.00 | 50 | 1008.0 |
| 20260505053611 | 17 | 119 | 22.5 | 48.3 | 0.00 | 0.00 | 0.00 | 49 | 1007.9 |
| 20260505053411 | 17 | 118 | 24.1 | 43.5 | 0.00 | 0.00 | 0.00 | 50 | 1008.0 |
| 20260505053214 | 17 | 117 | 24.1 | 43.5 | 0.00 | 0.00 | 0.00 | 50 | 1008.0 |
| 20260505053011 | 17 | 117 | 24.1 | 41.8 | 0.00 | 0.00 | 0.00 | 50 | 1008.0 |
| 20260505052811 | 17 | 118 | 24.1 | 43.5 | 0.00 | 0.00 | 0.00 | 49 | 1007.9 |
| 20260505052611 | 17 | 119 | 24.1 | 43.5 | 0.00 | 0.00 | 0.00 | 50 | 1008.0 |
| 20260505052411 | 17 | 119 | 22.5 | 43.5 | 0.00 | 0.00 | 0.00 | 49 | 1007.9 |
| 20260505052011 | 16 | 118 | 22.5 | 43.5 | 0.00 | 0.00 | 0.00 | 49 | 1007.8 |
| 20260505051611 | 16 | 116 | 20.9 | 40.2 | 0.00 | 0.00 | 0.00 | 50 | 1007.9 |
| 20260505051411 | 16 | 115 | 20.9 | 40.2 | 0.00 | 0.00 | 0.00 | 49 | 1007.8 |
| 20260505051211 | 16 | 115 | 20.9 | 40.2 | 0.00 | 0.00 | 0.00 | 49 | 1007.8 |
| 20260505051011 | 16 | 115 | 19.3 | 35.4 | 0.00 | 0.00 | 0.00 | 49 | 1007.8 |
| 20260505050811 | 16 | 115 | 19.3 | 35.4 | 0.00 | 0.00 | 0.00 | 49 | 1007.8 |
| 20260505050611 | 16 | 116 | 19.3 | 35.4 | 0.00 | 0.00 | 0.00 | 49 | 1008.0 |
| 20260505050411 | 16 | 117 | 19.3 | 35.4 | 0.00 | 0.00 | 0.00 | 49 | 1008.0 |
| 20260505050211 | 16 | 119 | 19.3 | 33.8 | 0.00 | 0.00 | 0.00 | 49 | 1007.9 |
| 20260505041611 | 16 | 117 | 22.5 | 41.8 | 0.00 | 0.00 | 0.00 | 48 | 1008.0 |
| 20260505041411 | 16 | 117 | 22.5 | 41.8 | 0.00 | 0.00 | 0.00 | 48 | 1008.1 |
| 20260505041211 | 16 | 117 | 24.1 | 43.5 | 0.00 | 0.00 | 0.00 | 48 | 1008.0 |
| 20260505041011 | 16 | 118 | 24.1 | 43.5 | 0.00 | 0.00 | 0.00 | 47 | 1008.0 |
| 20260505040811 | 16 | 117 | 24.1 | 43.5 | 0.00 | 0.00 | 0.00 | 47 | 1007.9 |
| 20260505040611 | 16 | 116 | 24.1 | 43.5 | 0.00 | 0.00 | 0.00 | 47 | 1008.1 |
| 20260505040411 | 16 | 116 | 24.1 | 43.5 | 0.00 | 0.00 | 0.00 | 47 | 1008.0 |
| 20260505040211 | 16 | 115 | 24.1 | 41.8 | 0.00 | 0.00 | 0.00 | 46 | 1008.1 |
| 20260505040011 | 16 | 114 | 24.1 | 40.2 | 0.00 | 0.00 | 0.00 | 46 | 1008.1 |
| 20260505035811 | 16 | 115 | 24.1 | 43.5 | 0.00 | 0.00 | 0.00 | 46 | 1008.0 |
| 20260505035610 | 16 | 117 | 24.1 | 43.5 | 0.00 | 0.00 | 0.00 | 46 | 1008.1 |
| 20260505035411 | 16 | 117 | 24.1 | 43.5 | 0.00 | 0.00 | 0.00 | 46 | 1008.0 |
| 20260505035211 | 16 | 117 | 22.5 | 43.5 | 0.00 | 0.00 | 0.00 | 46 | 1008.0 |
| 20260505035011 | 16 | 119 | 22.5 | 43.5 | 0.00 | 0.00 | 0.00 | 46 | 1007.9 |
| 20260505034811 | 16 | 117 | 22.5 | 38.6 | 0.00 | 0.00 | 0.00 | 46 | 1008.1 |
| 20260505034611 | 16 | 117 | 22.5 | 38.6 | 0.00 | 0.00 | 0.00 | 46 | 1008.0 |
| 20260505034411 | 16 | 118 | 22.5 | 38.6 | 0.00 | 0.00 | 0.00 | 46 | 1008.0 |
| 20260505034210 | 16 | 118 | 22.5 | 38.6 | 0.00 | 0.00 | 0.00 | 46 | 1008.1 |
| 20260505033810 | 16 | 119 | 22.5 | 38.6 | 0.00 | 0.00 | 0.00 | 45 | 1008.0 |
| 20260505033611 | 16 | 120 | 22.5 | 38.6 | 0.00 | 0.00 | 0.00 | 45 | 1008.0 |
| 20260505033211 | 16 | 118 | 22.5 | 38.6 | 0.00 | 0.00 | 0.00 | 45 | 1008.1 |
| 20260505033010 | 16 | 119 | 22.5 | 38.6 | 0.00 | 0.00 | 0.00 | 45 | 1008.0 |
| 20260505032811 | 16 | 117 | 22.5 | 38.6 | 0.00 | 0.00 | 0.00 | 45 | 1008.2 |
| 20260505032611 | 16 | 116 | 22.5 | 40.2 | 0.00 | 0.00 | 0.00 | 44 | 1008.1 |
| 20260505032411 | 16 | 118 | 22.5 | 40.2 | 0.00 | 0.00 | 0.00 | 44 | 1008.2 |
| 20260505032210 | 17 | 117 | 22.5 | 40.2 | 0.00 | 0.00 | 0.00 | 44 | 1008.2 |
| 20260505031810 | 17 | 117 | 22.5 | 40.2 | 0.00 | 0.00 | 0.00 | 44 | 1008.0 |
| 20260505031611 | 17 | 117 | 22.5 | 38.6 | 0.00 | 0.00 | 0.00 | 44 | 1008.2 |
| 20260505031411 | 17 | 117 | 22.5 | 38.6 | 0.00 | 0.00 | 0.00 | 44 | 1008.2 |
| 20260505031010 | 17 | 118 | 22.5 | 38.6 | 0.00 | 0.00 | 0.00 | 43 | 1008.2 |
| 20260505030811 | 17 | 119 | 20.9 | 35.4 | 0.00 | 0.00 | 0.00 | 43 | 1008.3 |
| 20260505030611 | 17 | 119 | 20.9 | 35.4 | 0.00 | 0.00 | 0.00 | 43 | 1008.3 |
| 20260505030410 | 17 | 120 | 20.9 | 35.4 | 0.00 | 0.00 | 0.00 | 43 | 1008.2 |
| 20260505030211 | 17 | 119 | 22.5 | 35.4 | 0.00 | 0.00 | 0.00 | 43 | 1008.3 |
| 20260505030010 | 17 | 118 | 22.5 | 33.8 | 0.00 | 0.00 | 0.00 | 44 | 1008.3 |
| 20260505025811 | 17 | 118 | 22.5 | 33.8 | 0.00 | 0.00 | 0.00 | 44 | 1008.3 |
| 20260505025610 | 17 | 117 | 22.5 | 33.8 | 0.00 | 0.00 | 0.00 | 43 | 1008.3 |
| 20260505025210 | 17 | 116 | 22.5 | 40.2 | 0.00 | 0.00 | 0.00 | 43 | 1008.4 |
| 20260505025011 | 17 | 116 | 22.5 | 40.2 | 0.00 | 0.00 | 0.00 | 43 | 1008.4 |
| 20260505024611 | 17 | 117 | 20.9 | 40.2 | 0.00 | 0.00 | 0.00 | 43 | 1008.4 |
| 20260505024410 | 17 | 118 | 20.9 | 40.2 | 0.00 | 0.00 | 0.00 | 43 | 1008.5 |
| 20260505024211 | 17 | 119 | 20.9 | 35.4 | 0.00 | 0.00 | 0.00 | 43 | 1008.5 |
| 20260505024011 | 17 | 119 | 20.9 | 35.4 | 0.00 | 0.00 | 0.00 | 43 | 1008.5 |
| 20260505023811 | 17 | 118 | 22.5 | 35.4 | 0.00 | 0.00 | 0.00 | 43 | 1008.6 |
| 20260505023610 | 17 | 118 | 22.5 | 37.0 | 0.00 | 0.00 | 0.00 | 42 | 1008.6 |
| 20260505023411 | 17 | 119 | 22.5 | 37.0 | 0.00 | 0.00 | 0.00 | 42 | 1008.6 |
| 20260505023210 | 17 | 119 | 22.5 | 38.6 | 0.00 | 0.00 | 0.00 | 42 | 1008.6 |
| 20260505022811 | 17 | 119 | 22.5 | 38.6 | 0.00 | 0.00 | 0.00 | 42 | 1008.5 |
| 20260505022611 | 17 | 119 | 24.1 | 38.6 | 0.00 | 0.00 | 0.00 | 42 | 1008.5 |
| 20260505022211 | 17 | 116 | 25.7 | 40.2 | 0.00 | 0.00 | 0.00 | 42 | 1008.5 |
| 20260505022010 | 17 | 115 | 25.7 | 40.2 | 0.00 | 0.00 | 0.00 | 41 | 1008.5 |
| 20260505021811 | 17 | 115 | 27.4 | 45.1 | 0.00 | 0.00 | 0.00 | 41 | 1008.6 |
| 20260505021210 | 17 | 117 | 27.4 | 45.1 | 0.00 | 0.00 | 0.00 | 41 | 1008.6 |
| 20260505020810 | 17 | 118 | 25.7 | 45.1 | 0.00 | 0.00 | 0.00 | 40 | 1008.5 |
| 20260505020611 | 17 | 118 | 25.7 | 40.2 | 0.00 | 0.00 | 0.00 | 41 | 1008.5 |
| 20260505020411 | 17 | 118 | 24.1 | 40.2 | 0.00 | 0.00 | 0.00 | 41 | 1008.5 |
| 20260505020210 | 17 | 118 | 24.1 | 46.7 | 0.00 | 0.00 | 0.00 | 41 | 1008.5 |
| 20260505020011 | 17 | 118 | 24.1 | 46.7 | 0.00 | 0.00 | 0.00 | 41 | 1008.5 |
| 20260505015810 | 17 | 118 | 24.1 | 46.7 | 0.00 | 0.00 | 0.00 | 41 | 1008.6 |
| 20260505015611 | 17 | 118 | 24.1 | 46.7 | 0.00 | 0.00 | 0.00 | 41 | 1008.6 |
| 20260505015411 | 17 | 118 | 24.1 | 46.7 | 0.00 | 0.00 | 0.00 | 41 | 1008.5 |
| 20260505015210 | 17 | 117 | 24.1 | 40.2 | 0.00 | 0.00 | 0.00 | 41 | 1008.6 |
| 20260505015011 | 17 | 117 | 24.1 | 40.2 | 0.00 | 0.00 | 0.00 | 41 | 1008.6 |
| 20260505014810 | 17 | 119 | 24.1 | 43.5 | 0.00 | 0.00 | 0.00 | 41 | 1008.6 |
| 20260505014411 | 17 | 120 | 24.1 | 43.5 | 0.00 | 0.00 | 0.00 | 41 | 1008.6 |
| 20260505014011 | 17 | 120 | 22.5 | 43.5 | 0.00 | 0.00 | 0.00 | 41 | 1008.6 |
| 20260505013611 | 17 | 118 | 22.5 | 40.2 | 0.00 | 0.00 | 0.00 | 41 | 1008.6 |
| 20260505013411 | 17 | 116 | 24.1 | 40.2 | 0.00 | 0.00 | 0.00 | 41 | 1008.7 |
| 20260505013210 | 17 | 116 | 24.1 | 43.5 | 0.00 | 0.00 | 0.00 | 40 | 1008.7 |
| 20260505013011 | 17 | 116 | 24.1 | 43.5 | 0.00 | 0.00 | 0.00 | 40 | 1008.7 |
| 20260505012810 | 17 | 116 | 24.1 | 43.5 | 0.00 | 0.00 | 0.00 | 40 | 1008.7 |
| 20260505012611 | 17 | 117 | 24.1 | 43.5 | 0.00 | 0.00 | 0.00 | 40 | 1008.7 |
| 20260505012410 | 17 | 118 | 24.1 | 46.7 | 0.00 | 0.00 | 0.00 | 40 | 1008.6 |
| 20260505012010 | 18 | 119 | 22.5 | 46.7 | 0.00 | 0.00 | 0.00 | 40 | 1008.6 |
| 20260505011811 | 17 | 119 | 22.5 | 46.7 | 0.00 | 0.00 | 0.00 | 40 | 1008.7 |
| 20260505011610 | 17 | 118 | 22.5 | 46.7 | 0.00 | 0.00 | 0.00 | 40 | 1008.7 |
| 20260505011411 | 18 | 117 | 20.9 | 43.5 | 0.00 | 0.00 | 0.00 | 40 | 1008.7 |
| 20260505011210 | 18 | 116 | 19.3 | 40.2 | 0.00 | 0.00 | 0.00 | 40 | 1008.8 |
| 20260505010611 | 17 | 118 | 16.1 | 35.4 | 0.00 | 0.00 | 0.00 | 40 | 1008.9 |
| 20260505010411 | 17 | 119 | 14.5 | 35.4 | 0.00 | 0.00 | 0.00 | 40 | 1009.0 |
| 20260505010210 | 17 | 116 | 12.9 | 33.8 | 0.00 | 0.00 | 0.00 | 40 | 1009.0 |
| 20260505010011 | 17 | 112 | 12.9 | 33.8 | 0.00 | 0.00 | 0.00 | 40 | 1009.1 |
| 20260505005810 | 17 | 109 | 11.3 | 33.8 | 0.00 | 0.00 | 0.00 | 40 | 1009.1 |
| 20260505005611 | 17 | 104 | 9.7 | 25.7 | 0.00 | 0.00 | 0.00 | 40 | 1009.2 |
| 20260505005410 | 17 | 101 | 9.7 | 25.7 | 0.00 | 0.00 | 0.00 | 41 | 1009.2 |
| 20260505005211 | 17 | 100 | 8.0 | 20.9 | 0.00 | 0.00 | 0.00 | 41 | 1009.3 |
| 20260505005010 | 17 | 98 | 8.0 | 20.9 | 0.00 | 0.00 | 0.00 | 41 | 1009.3 |
| 20260505004811 | 17 | 93 | 8.0 | 19.3 | 0.00 | 0.00 | 0.00 | 41 | 1009.3 |
| 20260505004610 | 17 | 90 | 8.0 | 19.3 | 0.00 | 0.00 | 0.00 | 41 | 1009.4 |
| 20260505004411 | 17 | 85 | 8.0 | 19.3 | 0.00 | 0.00 | 0.00 | 41 | 1009.4 |
| 20260505004210 | 17 | 75 | 8.0 | 19.3 | 0.00 | 0.00 | 0.00 | 41 | 1009.4 |
| 20260505004011 | 17 | 72 | 9.7 | 19.3 | 0.00 | 0.00 | 0.00 | 41 | 1009.5 |
| 20260505003810 | 17 | 68 | 9.7 | 16.1 | 0.00 | 0.00 | 0.00 | 41 | 1009.5 |
| 20260505003611 | 17 | 70 | 9.7 | 19.3 | 0.00 | 0.00 | 0.00 | 41 | 1009.6 |
| 20260505003411 | 17 | 75 | 11.3 | 19.3 | 0.00 | 0.00 | 0.00 | 41 | 1009.6 |
| 20260505003210 | 17 | 86 | 11.3 | 19.3 | 0.00 | 0.00 | 0.00 | 40 | 1009.7 |
| 20260505003011 | 17 | 91 | 11.3 | 20.9 | 0.00 | 0.00 | 0.00 | 40 | 1009.7 |
| 20260505002611 | 17 | 98 | 11.3 | 20.9 | 0.00 | 0.00 | 0.00 | 40 | 1009.7 |
| 20260505002410 | 17 | 98 | 11.3 | 22.5 | 0.00 | 0.00 | 0.00 | 40 | 1009.7 |
| 20260505002211 | 17 | 96 | 11.3 | 22.5 | 0.00 | 0.00 | 0.00 | 40 | 1009.8 |
| 20260505002010 | 17 | 97 | 11.3 | 22.5 | 0.00 | 0.00 | 0.00 | 40 | 1009.8 |
| 20260505001812 | 17 | 98 | 11.3 | 22.5 | 0.00 | 0.00 | 0.00 | 40 | 1009.9 |
| 20260505001611 | 17 | 99 | 11.3 | 22.5 | 0.00 | 0.00 | 0.00 | 39 | 1009.8 |
| 20260505001411 | 17 | 101 | 12.9 | 20.9 | 0.00 | 0.00 | 0.00 | 39 | 1009.8 |
| 20260505001211 | 17 | 102 | 12.9 | 20.9 | 0.00 | 0.00 | 0.00 | 39 | 1009.9 |
| 20260505001011 | 17 | 102 | 12.9 | 20.9 | 0.00 | 0.00 | 0.00 | 39 | 1009.9 |
| 20260505000810 | 17 | 103 | 12.9 | 24.1 | 0.00 | 0.00 | 0.00 | 39 | 1009.9 |
| 20260505000611 | 17 | 104 | 12.9 | 24.1 | 0.00 | 0.00 | 0.00 | 39 | 1010.0 |
| 20260505000413 | 17 | 106 | 12.9 | 24.1 | 0.00 | 0.00 | 0.00 | 38 | 1010.0 |
| 20260505000211 | 17 | 107 | 12.9 | 24.1 | 0.00 | 0.00 | 0.00 | 38 | 1010.0 |
| 20260505000011 | 17 | 108 | 12.9 | 24.1 | 0.00 | 0.00 | 0.00 | 38 | 1010.0 |
| 20260504235810 | 17 | 110 | 14.5 | 24.1 | 0.00 | 0.00 | 0.00 | 38 | 1010.1 |
| 20260504235611 | 17 | 111 | 14.5 | 24.1 | 0.00 | 0.00 | 0.00 | 38 | 1010.0 |
| 20260504235411 | 17 | 110 | 14.5 | 24.1 | 0.00 | 0.00 | 0.00 | 38 | 1010.0 |
| 20260504235210 | 18 | 110 | 14.5 | 24.1 | 0.00 | 0.00 | 0.00 | 38 | 1010.1 |
| 20260504235011 | 18 | 109 | 14.5 | 24.1 | 0.00 | 0.00 | 0.00 | 38 | 1010.1 |
| 20260504234810 | 18 | 108 | 14.5 | 24.1 | 0.00 | 0.00 | 0.00 | 38 | 1010.1 |
| 20260504234610 | 18 | 108 | 14.5 | 24.1 | 0.00 | 0.00 | 0.00 | 38 | 1010.1 |
| 20260504234411 | 18 | 109 | 16.1 | 25.7 | 0.00 | 0.00 | 0.00 | 38 | 1010.1 |
| 20260504234210 | 18 | 111 | 16.1 | 25.7 | 0.00 | 0.00 | 0.00 | 38 | 1010.1 |
| 20260504234011 | 18 | 111 | 16.1 | 25.7 | 0.00 | 0.00 | 0.00 | 38 | 1010.2 |
| 20260504233610 | 18 | 112 | 16.1 | 25.7 | 0.00 | 0.00 | 0.00 | 38 | 1010.1 |
| 20260504233410 | 18 | 111 | 16.1 | 25.7 | 0.00 | 0.00 | 0.00 | 38 | 1010.2 |
| 20260504233210 | 18 | 111 | 16.1 | 25.7 | 0.00 | 0.00 | 0.00 | 38 | 1010.1 |
| 20260504233010 | 18 | 112 | 16.1 | 25.7 | 0.00 | 0.00 | 0.00 | 38 | 1010.2 |
| 20260504232811 | 18 | 113 | 14.5 | 25.7 | 0.00 | 0.00 | 0.00 | 38 | 1010.1 |
| 20260504232610 | 18 | 114 | 14.5 | 25.7 | 0.00 | 0.00 | 0.00 | 38 | 1010.2 |
| 20260504232411 | 18 | 114 | 14.5 | 25.7 | 0.00 | 0.00 | 0.00 | 38 | 1010.2 |
| 20260504232210 | 18 | 113 | 14.5 | 22.5 | 0.00 | 0.00 | 0.00 | 38 | 1010.2 |
| 20260504232011 | 18 | 113 | 14.5 | 22.5 | 0.00 | 0.00 | 0.00 | 38 | 1010.2 |
| 20260504231810 | 18 | 111 | 14.5 | 22.5 | 0.00 | 0.00 | 0.00 | 38 | 1010.2 |
| 20260504231611 | 18 | 112 | 14.5 | 24.1 | 0.00 | 0.00 | 0.00 | 37 | 1010.2 |
| 20260504231410 | 18 | 113 | 16.1 | 24.1 | 0.00 | 0.00 | 0.00 | 37 | 1010.3 |
| 20260504231211 | 18 | 114 | 16.1 | 24.1 | 0.00 | 0.00 | 0.00 | 37 | 1010.3 |
| 20260504231010 | 18 | 115 | 16.1 | 24.1 | 0.00 | 0.00 | 0.00 | 37 | 1010.3 |
| 20260504230610 | 18 | 116 | 16.1 | 24.1 | 0.00 | 0.00 | 0.00 | 37 | 1010.3 |
| 20260504230411 | 18 | 115 | 16.1 | 25.7 | 0.00 | 0.00 | 0.00 | 37 | 1010.4 |
| 20260504230210 | 18 | 115 | 17.7 | 25.7 | 0.00 | 0.00 | 0.00 | 37 | 1010.3 |
| 20260504230011 | 19 | 115 | 17.7 | 25.7 | 0.00 | 0.00 | 0.00 | 37 | 1010.4 |
| 20260504225810 | 19 | 114 | 17.7 | 25.7 | 0.00 | 0.00 | 0.00 | 37 | 1010.4 |
| 20260504225611 | 19 | 115 | 17.7 | 25.7 | 0.00 | 0.00 | 0.00 | 37 | 1010.4 |
| 20260504225410 | 19 | 117 | 17.7 | 27.4 | 0.00 | 0.00 | 0.00 | 37 | 1010.5 |
| 20260504225211 | 19 | 118 | 17.7 | 27.4 | 0.00 | 0.00 | 0.00 | 37 | 1010.5 |
| 20260504225010 | 19 | 119 | 17.7 | 27.4 | 0.00 | 0.00 | 0.00 | 37 | 1010.6 |
| 20260504224811 | 19 | 119 | 17.7 | 29.0 | 0.00 | 0.00 | 0.00 | 37 | 1010.5 |
| 20260504224610 | 19 | 119 | 17.7 | 29.0 | 0.00 | 0.00 | 0.00 | 37 | 1010.6 |
| 20260504224411 | 19 | 118 | 17.7 | 32.2 | 0.00 | 0.00 | 0.00 | 36 | 1010.5 |
| 20260504224210 | 19 | 118 | 17.7 | 32.2 | 0.00 | 0.00 | 0.00 | 36 | 1010.6 |
| 20260504224011 | 19 | 118 | 16.1 | 32.2 | 0.00 | 0.00 | 0.00 | 37 | 1010.6 |
| 20260504223811 | 19 | 119 | 16.1 | 32.2 | 0.00 | 0.00 | 0.00 | 36 | 1010.5 |
| 20260504223610 | 19 | 119 | 14.5 | 32.2 | 0.00 | 0.00 | 0.00 | 36 | 1010.6 |
| 20260504223410 | 19 | 118 | 14.5 | 32.2 | 0.00 | 0.00 | 0.00 | 36 | 1010.6 |
| 20260504223210 | 19 | 118 | 14.5 | 32.2 | 0.00 | 0.00 | 0.00 | 36 | 1010.6 |
| 20260504223010 | 19 | 117 | 12.9 | 32.2 | 0.00 | 0.00 | 0.00 | 36 | 1010.7 |
| 20260504222811 | 19 | 115 | 12.9 | 29.0 | 0.00 | 0.00 | 0.00 | 36 | 1010.7 |
| 20260504222610 | 19 | 115 | 12.9 | 29.0 | 0.00 | 0.00 | 0.00 | 36 | 1010.7 |
| 20260504222411 | 19 | 115 | 12.9 | 29.0 | 0.00 | 0.00 | 0.00 | 36 | 1010.7 |
| 20260504222210 | 19 | 114 | 12.9 | 22.5 | 0.00 | 0.00 | 0.00 | 36 | 1010.7 |
| 20260504222011 | 19 | 115 | 12.9 | 22.5 | 0.00 | 0.00 | 0.00 | 36 | 1010.8 |
| 20260504221810 | 19 | 115 | 12.9 | 22.5 | 0.00 | 0.00 | 0.00 | 36 | 1010.8 |
| 20260504221611 | 19 | 116 | 12.9 | 22.5 | 0.00 | 0.00 | 0.00 | 37 | 1010.8 |
| 20260504221410 | 19 | 117 | 14.5 | 22.5 | 0.00 | 0.00 | 0.00 | 36 | 1010.8 |
| 20260504221211 | 19 | 117 | 14.5 | 22.5 | 0.00 | 0.00 | 0.00 | 36 | 1010.8 |
| 20260504221010 | 19 | 118 | 14.5 | 22.5 | 0.00 | 0.00 | 0.00 | 36 | 1010.8 |
| 20260504220811 | 19 | 118 | 14.5 | 22.5 | 0.00 | 0.00 | 0.00 | 36 | 1010.8 |
| 20260504220610 | 19 | 117 | 14.5 | 24.1 | 0.00 | 0.00 | 0.00 | 36 | 1010.9 |
| 20260504220211 | 19 | 118 | 14.5 | 25.7 | 0.00 | 0.00 | 0.00 | 36 | 1010.9 |
| 20260504220012 | 20 | 118 | 14.5 | 25.7 | 0.00 | 0.00 | 0.00 | 36 | 1010.9 |
| 20260504215810 | 20 | 118 | 14.5 | 25.7 | 0.00 | 0.00 | 0.00 | 36 | 1011.0 |
| 20260504215611 | 20 | 117 | 16.1 | 25.7 | 0.00 | 0.00 | 0.00 | 36 | 1010.9 |
| 20260504215411 | 20 | 117 | 16.1 | 25.7 | 0.00 | 0.00 | 0.00 | 36 | 1010.8 |
| 20260504215210 | 20 | 116 | 16.1 | 24.1 | 0.00 | 0.00 | 0.00 | 36 | 1010.9 |
| 20260504215011 | 20 | 116 | 16.1 | 25.7 | 0.00 | 0.00 | 0.00 | 36 | 1010.9 |
| 20260504214610 | 19 | 117 | 16.1 | 27.4 | 0.00 | 0.00 | 0.00 | 36 | 1010.8 |
| 20260504214410 | 19 | 117 | 16.1 | 27.4 | 0.00 | 0.00 | 0.00 | 36 | 1010.8 |
| 20260504214210 | 19 | 117 | 14.5 | 27.4 | 0.00 | 0.00 | 0.00 | 36 | 1010.9 |
| 20260504214010 | 19 | 118 | 14.5 | 27.4 | 0.00 | 0.00 | 0.00 | 36 | 1011.0 |
| 20260504213811 | 19 | 120 | 14.5 | 25.7 | 0.00 | 0.00 | 0.00 | 36 | 1010.9 |
| 20260504213610 | 19 | 118 | 14.5 | 25.7 | 0.00 | 0.00 | 0.00 | 36 | 1010.9 |
| 20260504213410 | 19 | 117 | 14.5 | 25.7 | 0.00 | 0.00 | 0.00 | 36 | 1010.9 |
| 20260504213210 | 19 | 117 | 14.5 | 25.7 | 0.00 | 0.00 | 0.00 | 36 | 1011.0 |
| 20260504213011 | 19 | 116 | 14.5 | 25.7 | 0.00 | 0.00 | 0.00 | 37 | 1011.0 |
| 20260504212811 | 19 | 115 | 14.5 | 24.1 | 0.00 | 0.00 | 0.00 | 36 | 1011.0 |
| 20260504212410 | 19 | 115 | 14.5 | 24.1 | 0.00 | 0.00 | 0.00 | 36 | 1011.0 |
| 20260504212210 | 19 | 115 | 14.5 | 24.1 | 0.00 | 0.00 | 0.00 | 36 | 1011.0 |
| 20260504211810 | 19 | 117 | 14.5 | 24.1 | 0.00 | 0.00 | 0.00 | 36 | 1011.0 |
| 20260504211410 | 19 | 118 | 12.9 | 27.4 | 0.00 | 0.00 | 0.00 | 36 | 1011.0 |
| 20260504211010 | 19 | 117 | 12.9 | 27.4 | 0.00 | 0.00 | 0.00 | 35 | 1011.1 |
| 20260504210811 | 19 | 119 | 12.9 | 27.4 | 0.00 | 0.00 | 0.00 | 35 | 1011.1 |
| 20260504210610 | 19 | 119 | 12.9 | 24.1 | 0.00 | 0.00 | 0.00 | 35 | 1011.1 |
| 20260504210411 | 19 | 119 | 12.9 | 22.5 | 0.00 | 0.00 | 0.00 | 35 | 1011.2 |
| 20260504210210 | 19 | 118 | 14.5 | 22.5 | 0.00 | 0.00 | 0.00 | 35 | 1011.1 |
| 20260504210011 | 19 | 120 | 12.9 | 22.5 | 0.00 | 0.00 | 0.00 | 35 | 1011.1 |
| 20260504205810 | 19 | 119 | 12.9 | 22.5 | 0.00 | 0.00 | 0.00 | 35 | 1011.1 |
| 20260504205611 | 19 | 118 | 12.9 | 22.5 | 0.00 | 0.00 | 0.00 | 35 | 1011.1 |
| 20260504205410 | 19 | 117 | 14.5 | 22.5 | 0.00 | 0.00 | 0.00 | 35 | 1011.1 |
| 20260504205211 | 19 | 116 | 14.5 | 22.5 | 0.00 | 0.00 | 0.00 | 35 | 1011.2 |
| 20260504205010 | 19 | 116 | 14.5 | 24.1 | 0.00 | 0.00 | 0.00 | 35 | 1011.2 |
| 20260504204810 | 19 | 116 | 14.5 | 24.1 | 0.00 | 0.00 | 0.00 | 35 | 1011.2 |
| 20260504204610 | 19 | 117 | 12.9 | 24.1 | 0.00 | 0.00 | 0.00 | 35 | 1011.2 |
| 20260504204411 | 19 | 116 | 12.9 | 24.1 | 0.00 | 0.00 | 0.00 | 35 | 1011.2 |
| 20260504204010 | 19 | 116 | 11.3 | 22.5 | 0.00 | 0.00 | 0.00 | 35 | 1011.1 |
| 20260504203810 | 19 | 116 | 11.3 | 22.5 | 0.00 | 0.00 | 0.00 | 35 | 1011.2 |
| 20260504203410 | 19 | 117 | 11.3 | 19.3 | 0.00 | 0.00 | 0.00 | 35 | 1011.2 |
| 20260504203011 | 19 | 119 | 11.3 | 17.7 | 0.00 | 0.00 | 0.00 | 35 | 1011.1 |
| 20260504202810 | 19 | 119 | 11.3 | 17.7 | 0.00 | 0.00 | 0.00 | 35 | 1011.1 |
| 20260504202611 | 19 | 119 | 11.3 | 17.7 | 0.00 | 0.00 | 0.00 | 35 | 1011.1 |
| 20260504202410 | 19 | 118 | 11.3 | 17.7 | 0.00 | 0.00 | 0.00 | 36 | 1011.1 |
| 20260504202210 | 19 | 118 | 11.3 | 17.7 | 0.00 | 0.00 | 0.00 | 36 | 1011.1 |
| 20260504201810 | 19 | 117 | 9.7 | 17.7 | 0.00 | 0.00 | 0.00 | 36 | 1011.1 |
| 20260504201611 | 19 | 116 | 9.7 | 17.7 | 0.00 | 0.00 | 0.00 | 36 | 1011.1 |
| 20260504201405 | 19 | 119 | 9.7 | 17.7 | 0.00 | 0.00 | 0.00 | 36 | 1011.1 |
| 20260504201226 | 19 | 119 | 9.7 | 17.7 | 0.00 | 0.00 | 0.00 | 36 | 1011.2 |
| 20260504201021 | 19 | 119 | 9.7 | 16.1 | 0.00 | 0.00 | 0.00 | 36 | 1011.2 |
| 20260504200410 | 19 | 117 | 8.0 | 16.1 | 0.00 | 0.00 | 0.00 | 36 | 1011.3 |
| 20260504200210 | 19 | 116 | 8.0 | 16.1 | 0.00 | 0.00 | 0.00 | 36 | 1011.2 |
| 20260504200010 | 19 | 116 | 8.0 | 17.7 | 0.00 | 0.00 | 0.00 | 36 | 1011.2 |
| 20260504195810 | 19 | 115 | 8.0 | 17.7 | 0.00 | 0.00 | 0.00 | 36 | 1011.2 |
| 20260504195611 | 19 | 114 | 8.0 | 17.7 | 0.00 | 0.00 | 0.00 | 36 | 1011.2 |
| 20260504195410 | 19 | 115 | 8.0 | 17.7 | 0.00 | 0.00 | 0.00 | 36 | 1011.2 |
| 20260504195210 | 19 | 113 | 8.0 | 17.7 | 0.00 | 0.00 | 0.00 | 36 | 1011.2 |
| 20260504195010 | 19 | 112 | 8.0 | 14.5 | 0.00 | 0.00 | 0.00 | 37 | 1011.2 |
| 20260504194810 | 19 | 110 | 8.0 | 14.5 | 0.00 | 0.00 | 0.00 | 37 | 1011.2 |
| 20260504194610 | 18 | 109 | 8.0 | 16.1 | 0.00 | 0.00 | 0.00 | 38 | 1011.2 |
| 20260504194410 | 18 | 109 | 8.0 | 16.1 | 0.00 | 0.00 | 0.00 | 38 | 1011.2 |
| 20260504194010 | 18 | 108 | 6.4 | 16.1 | 0.00 | 0.00 | 0.00 | 38 | 1011.2 |
| 20260504193810 | 18 | 106 | 6.4 | 16.1 | 0.00 | 0.00 | 0.00 | 38 | 1011.2 |
| 20260504193611 | 18 | 108 | 6.4 | 11.3 | 0.00 | 0.00 | 0.00 | 38 | 1011.2 |
| 20260504193410 | 18 | 108 | 6.4 | 11.3 | 0.00 | 0.00 | 0.00 | 38 | 1011.2 |
| 20260504193211 | 18 | 108 | 6.4 | 12.9 | 0.00 | 0.00 | 0.00 | 39 | 1011.2 |
| 20260504193010 | 18 | 109 | 6.4 | 14.5 | 0.00 | 0.00 | 0.00 | 39 | 1011.2 |
| 20260504192811 | 18 | 112 | 6.4 | 14.5 | 0.00 | 0.00 | 0.00 | 39 | 1011.3 |
| 20260504192610 | 18 | 110 | 4.8 | 14.5 | 0.00 | 0.00 | 0.00 | 40 | 1011.2 |
| 20260504192411 | 18 | 108 | 4.8 | 14.5 | 0.00 | 0.00 | 0.00 | 40 | 1011.2 |
| 20260504192210 | 18 | 109 | 4.8 | 14.5 | 0.00 | 0.00 | 0.00 | 40 | 1011.3 |
| 20260504191810 | 17 | 103 | 4.8 | 9.7 | 0.00 | 0.00 | 0.00 | 40 | 1011.3 |
| 20260504191611 | 17 | 102 | 4.8 | 9.7 | 0.00 | 0.00 | 0.00 | 41 | 1011.3 |
| 20260504191210 | 17 | 99 | 3.2 | 9.7 | 0.00 | 0.00 | 0.00 | 41 | 1011.3 |
| 20260504191010 | 17 | 99 | 3.2 | 6.4 | 0.00 | 0.00 | 0.00 | 41 | 1011.3 |
| 20260504190810 | 17 | 101 | 3.2 | 6.4 | 0.00 | 0.00 | 0.00 | 42 | 1011.4 |
| 20260504190610 | 17 | 102 | 3.2 | 6.4 | 0.00 | 0.00 | 0.00 | 41 | 1011.4 |
| 20260504190410 | 17 | 102 | 3.2 | 6.4 | 0.00 | 0.00 | 0.00 | 42 | 1011.4 |
| 20260504185810 | 18 | 96 | 3.2 | 6.4 | 0.00 | 0.00 | 0.00 | 40 | 1011.3 |
| 20260504185610 | 18 | 92 | 3.2 | 6.4 | 0.00 | 0.00 | 0.00 | 40 | 1011.3 |
| 20260504185410 | 18 | 90 | 3.2 | 6.4 | 0.00 | 0.00 | 0.00 | 40 | 1011.3 |
| 20260504184809 | 18 | 89 | 3.2 | 6.4 | 0.00 | 0.00 | 0.00 | 40 | 1011.3 |
| 20260504184410 | 18 | 90 | 3.2 | 6.4 | 0.00 | 0.00 | 0.00 | 39 | 1011.3 |
| 20260504184210 | 18 | 91 | 3.2 | 6.4 | 0.00 | 0.00 | 0.00 | 39 | 1011.2 |
| 20260504184010 | 19 | 94 | 3.2 | 6.4 | 0.00 | 0.00 | 0.00 | 38 | 1011.2 |
| 20260504183810 | 19 | 96 | 3.2 | 6.4 | 0.00 | 0.00 | 0.00 | 38 | 1011.2 |
| 20260504183610 | 19 | 103 | 3.2 | 8.0 | 0.00 | 0.00 | 0.00 | 37 | 1011.3 |
| 20260504183010 | 20 | 112 | 4.8 | 9.7 | 0.00 | 0.00 | 0.00 | 37 | 1011.2 |
| 20260504182810 | 20 | 114 | 4.8 | 11.3 | 0.00 | 0.00 | 0.00 | 37 | 1011.2 |
| 20260504182611 | 20 | 115 | 4.8 | 11.3 | 0.00 | 0.00 | 0.00 | 37 | 1011.2 |
| 20260504182410 | 20 | 116 | 4.8 | 11.3 | 0.00 | 0.00 | 0.00 | 37 | 1011.3 |
| 20260504182210 | 20 | 116 | 4.8 | 11.3 | 0.00 | 0.00 | 0.00 | 36 | 1011.2 |
| 20260504181810 | 20 | 117 | 4.8 | 11.3 | 0.00 | 0.00 | 0.00 | 37 | 1011.2 |
| 20260504181410 | 20 | 117 | 3.2 | 9.7 | 0.00 | 0.00 | 0.00 | 37 | 1011.2 |
| 20260504181210 | 20 | 123 | 3.2 | 9.7 | 0.00 | 0.00 | 0.00 | 36 | 1011.2 |
| 20260504180810 | 21 | 132 | 3.2 | 9.7 | 0.00 | 0.00 | 0.00 | 37 | 1011.1 |
| 20260504180610 | 21 | 136 | 4.8 | 8.0 | 0.00 | 0.00 | 0.00 | 36 | 1011.2 |
| 20260504180410 | 21 | 140 | 4.8 | 8.0 | 0.00 | 0.00 | 0.00 | 36 | 1011.2 |
| 20260504180209 | 21 | 139 | 4.8 | 14.5 | 0.00 | 0.00 | 0.00 | 36 | 1011.1 |
| 20260504175810 | 21 | 143 | 6.4 | 14.5 | 0.00 | 0.00 | 0.00 | 36 | 1011.1 |
| 20260504175410 | 21 | 145 | 6.4 | 14.5 | 0.00 | 0.00 | 0.00 | 35 | 1011.1 |
| 20260504175210 | 21 | 148 | 6.4 | 14.5 | 0.00 | 0.00 | 0.00 | 35 | 1011.1 |
| 20260504175010 | 21 | 145 | 6.4 | 14.5 | 0.00 | 0.00 | 0.00 | 35 | 1011.1 |
| 20260504174810 | 21 | 147 | 8.0 | 14.5 | 0.00 | 0.00 | 0.00 | 35 | 1011.1 |
| 20260504174409 | 22 | 148 | 8.0 | 16.1 | 0.00 | 0.00 | 0.00 | 34 | 1011.0 |
| 20260504174210 | 22 | 150 | 8.0 | 17.7 | 0.00 | 0.00 | 0.00 | 33 | 1011.1 |
| 20260504174011 | 22 | 150 | 9.7 | 17.7 | 0.00 | 0.00 | 0.00 | 33 | 1011.0 |
| 20260504173810 | 22 | 148 | 9.7 | 20.9 | 0.00 | 0.00 | 0.00 | 33 | 1011.0 |
| 20260504173609 | 22 | 149 | 9.7 | 20.9 | 0.00 | 0.00 | 0.00 | 32 | 1011.0 |
| 20260504173410 | 22 | 147 | 11.3 | 20.9 | 0.00 | 0.00 | 0.00 | 32 | 1011.0 |
| 20260504173210 | 22 | 145 | 11.3 | 27.4 | 0.00 | 0.00 | 0.00 | 32 | 1011.0 |
| 20260504173010 | 22 | 145 | 11.3 | 27.4 | 0.00 | 0.00 | 0.00 | 32 | 1011.0 |
| 20260504172810 | 22 | 146 | 11.3 | 27.4 | 0.00 | 0.00 | 0.00 | 31 | 1011.0 |
| 20260504172611 | 22 | 142 | 12.9 | 27.4 | 0.00 | 0.00 | 0.00 | 31 | 1011.0 |
| 20260504172410 | 22 | 144 | 12.9 | 27.4 | 0.00 | 0.00 | 0.00 | 31 | 1011.0 |
| 20260504172210 | 22 | 144 | 12.9 | 29.0 | 0.00 | 0.00 | 0.00 | 31 | 1011.0 |
| 20260504171809 | 23 | 140 | 11.3 | 29.0 | 0.00 | 0.00 | 0.00 | 31 | 1011.0 |
| 20260504171610 | 23 | 142 | 11.3 | 29.0 | 0.00 | 0.00 | 0.00 | 31 | 1010.9 |
| 20260504171409 | 23 | 138 | 11.3 | 29.0 | 0.00 | 0.00 | 0.00 | 31 | 1010.9 |
| 20260504171010 | 23 | 144 | 11.3 | 29.0 | 0.00 | 0.00 | 0.00 | 31 | 1011.0 |
| 20260504170810 | 23 | 143 | 11.3 | 29.0 | 0.00 | 0.00 | 0.00 | 31 | 1010.9 |
| 20260504170610 | 23 | 143 | 11.3 | 29.0 | 0.00 | 0.00 | 0.00 | 31 | 1011.0 |
| 20260504170410 | 23 | 143 | 12.9 | 29.0 | 0.00 | 0.00 | 0.00 | 31 | 1011.0 |
| 20260504170210 | 23 | 142 | 12.9 | 25.7 | 0.00 | 0.00 | 0.00 | 31 | 1010.9 |
| 20260504160410 | 24 | 129 | 16.1 | 30.6 | 0.00 | 0.00 | 0.00 | 30 | 1011.0 |
| 20260504160210 | 24 | 132 | 16.1 | 30.6 | 0.00 | 0.00 | 0.00 | 30 | 1011.0 |
| 20260504151010 | 25 | 126 | 14.5 | 32.2 | 0.00 | 0.00 | 0.00 | 30 | 1011.3 |
| 20260504150810 | 25 | 126 | 14.5 | 32.2 | 0.00 | 0.00 | 0.00 | 29 | 1011.3 |
| 20260504150409 | 25 | 130 | 14.5 | 32.2 | 0.00 | 0.00 | 0.00 | 29 | 1011.4 |
| 20260504150210 | 25 | 130 | 14.5 | 32.2 | 0.00 | 0.00 | 0.00 | 30 | 1011.4 |
| 20260504141210 | 25 | 134 | 16.1 | 30.6 | 0.00 | 0.00 | 0.00 | 31 | 1011.9 |
| 20260504141009 | 25 | 135 | 16.1 | 30.6 | 0.00 | 0.00 | 0.00 | 32 | 1012.0 |
| 20260504140810 | 25 | 131 | 16.1 | 30.6 | 0.00 | 0.00 | 0.00 | 32 | 1012.0 |
| 20260504140609 | 25 | 130 | 16.1 | 30.6 | 0.00 | 0.00 | 0.00 | 31 | 1012.0 |
| 20260504140410 | 25 | 131 | 16.1 | 30.6 | 0.00 | 0.00 | 0.00 | 31 | 1012.0 |
| 20260504140210 | 25 | 129 | 17.7 | 30.6 | 0.00 | 0.00 | 0.00 | 32 | 1012.0 |
| 20260504130810 | 25 | 128 | 17.7 | 32.2 | 0.00 | 0.00 | 0.00 | 34 | 1012.5 |
| 20260504130609 | 25 | 118 | 17.7 | 32.2 | 0.00 | 0.00 | 0.00 | 34 | 1012.5 |
| 20260504130210 | 25 | 130 | 17.7 | 30.6 | 0.00 | 0.00 | 0.00 | 33 | 1012.5 |
| 20260504110610 | 23 | 132 | 17.7 | 37.0 | 0.00 | 0.00 | 0.00 | 40 | 1013.7 |
| 20260504110409 | 23 | 131 | 17.7 | 37.0 | 0.00 | 0.00 | 0.00 | 40 | 1013.8 |
| 20260504110210 | 23 | 129 | 17.7 | 37.0 | 0.00 | 0.00 | 0.00 | 40 | 1013.7 |
| 20260504100610 | 22 | 132 | 17.7 | 30.6 | 0.00 | 0.00 | 0.00 | 42 | 1014.5 |
| 20260504100409 | 22 | 137 | 17.7 | 30.6 | 0.00 | 0.00 | 0.00 | 42 | 1014.6 |
| 20260504100209 | 22 | 133 | 17.7 | 30.6 | 0.00 | 0.00 | 0.00 | 41 | 1014.6 |
| 20260504081809 | 20 | 135 | 17.7 | 33.8 | 0.00 | 0.00 | 0.00 | 45 | 1014.8 |
| 20260504081609 | 20 | 132 | 19.3 | 37.0 | 0.00 | 0.00 | 0.00 | 44 | 1014.8 |
| 20260504081409 | 20 | 132 | 19.3 | 37.0 | 0.00 | 0.00 | 0.00 | 44 | 1014.8 |
| 20260504081209 | 20 | 129 | 19.3 | 37.0 | 0.00 | 0.00 | 0.00 | 44 | 1014.7 |
| 20260504081009 | 20 | 129 | 19.3 | 37.0 | 0.00 | 0.00 | 0.00 | 44 | 1014.7 |
| 20260504080609 | 19 | 132 | 19.3 | 35.4 | 0.00 | 0.00 | 0.00 | 44 | 1014.7 |
| 20260504080209 | 19 | 132 | 17.7 | 35.4 | 0.00 | 0.00 | 0.00 | 45 | 1014.7 |